Overview Statistics Trail Chart Weather Telemetry Raw packets
 

This is the latest recevied weather packets stored in our database for station/object N1YZ. If no packets are shown the sender has not sent any weather packets the latest 10 day(s).

<< 2 3 4 5 6 7 8 >>
Time Temp. Humidity Pressure Rain* Wind** Luminosity Snow
1788636940 35.56° C 54% 1031 hPa 0 mm - 68 W/m² -
1788636635 35.56° C 51% 1031.2 hPa 0 mm - 91 W/m² -
1788636330 35.56° C 50% 1031.5 hPa 0 mm - 84 W/m² -
1788636027 35.56° C 50% 1031.6 hPa 0 mm - 75 W/m² -
1788635724 35.56° C 50% 1031.7 hPa 0 mm - 128 W/m² -
1788635424 35° C 52% 1031.8 hPa 0 mm - 84 W/m² -
1788635141 34.44° C 55% 1031.7 hPa 0 mm - 252 W/m² -
1788634816 34.44° C 57% 1031.7 hPa 0 mm - 236 W/m² -
1788634510 35° C 55% 1031.6 hPa 0 mm - 78 W/m² -
1788634209 35.56° C 51% 1031.9 hPa 0 mm - 127 W/m² -
1788633904 35.56° C 52% 1032.1 hPa 0 mm - 661 W/m² -
1788633603 35.56° C 54% 1032.1 hPa 0 mm - 680 W/m² -
1788633303 36.11° C 55% 1032.4 hPa 0 mm - 673 W/m² -
1788632997 35.56° C 51% 1032.2 hPa 0 mm - 660 W/m² -
1788632697 35° C 54% 1032.4 hPa 0 mm - 658 W/m² -
1788632392 35.56° C 53% 1032.5 hPa 0 mm - 145 W/m² -
1788632087 35.56° C 53% 1032.5 hPa 0 mm - 87 W/m² -
1788631786 36.11° C 50% 1032.5 hPa 0 mm - 103 W/m² -
1788631481 35.56° C 53% 1032.8 hPa 0 mm - 187 W/m² -
1788631176 35.56° C 51% 1032.9 hPa 0 mm - 86 W/m² -
1788630876 35.56° C 51% 1032.7 hPa 0 mm - 138 W/m² -
1788630571 36.11° C 53% 1032.8 hPa 0 mm - 84 W/m² -
1788630267 35.56° C 53% 1033 hPa 0 mm - 88 W/m² -
1788629962 34.44° C 52% 1032.9 hPa 0 mm - 113 W/m² -
1788629658 35° C 56% 1033.2 hPa 0 mm - 95 W/m² -

* Rain latest hour (hover to see other rain measurements)
** Current wind speed in m/s (hover to see current wind gust speed)